Location: Stokes Fall Starparty
(41.2298°N, 74.7506°W)
Time: 06:51:27
(UTC-04:00)

Daily predictions for brighter satellites

Satellite Brightness Start Highest point End
(mag) Time Altitude Azimuth Time Altitude Azimuth Time Altitude Azimuth
Cosmos 923 Rocket 4.1 20:57:39 10° NNW 21:02:51 68° ENE 21:08:01 10° SSE
Cosmos 304 Rocket 4.1 20:58:25 10° N 21:03:09 54° ENE 21:07:51 10° SE
SJ-11-01 4.3 21:00:15 10° SSE 21:04:57 75° ENE 21:09:42 10° N
CZ-4 DEB 3.6 21:03:41 10° S 21:06:49 50° W 21:09:58 10° NNW
Cosmos 1908 3.3 21:03:31 10° N 21:07:25 64° E 21:11:18 10° SSE
Delta 2 Rocket 3.8 21:04:21 10° WSW 21:07:46 33° S 21:10:55 10° ESE
SPOT 5 3.6 21:03:45 10° SE 21:07:58 37° ENE 21:12:25 10° N
Cosmos 1674 2.7 21:07:47 10° S 21:11:34 65° E 21:15:25 10° NNE
Cosmos 773 Rocket 4.2 21:07:02 10° NNW 21:12:15 78° WSW 21:17:29 10° SSE
Cosmos 2151 3.3 21:09:33 10° SSE 21:13:35 47° E 21:17:37 10° NNE
deb Chang Zheng 4 3.6 21:11:18 10° NNE 21:15:38 67° ESE 21:19:57 10° S
NOSS 3-1 (A) 4.0 21:11:19 10° S 21:16:28 33° ESE 21:22:01 10° NE
Cosmos 2227 Rocket 4.0 21:15:01 10° ESE 21:17:11 12° E 21:19:21 10° ENE
YAOGAN 6 4.1 21:15:56 10° ESE 21:18:49 23° ENE 21:21:42 10° NNE
Cosmos 1515 Rocket 4.3 21:18:44 10° NNW 21:23:04 54° W 21:27:20 10° S
Cosmos 2058 3.6 21:19:53 10° SSE 21:23:37 35° E 21:27:23 10° NNE
Cosmos 1300 3.7 21:22:13 10° NNE 21:25:39 30° ENE 21:28:45 12° SE
Cosmos 883 Rocket 4.5 21:20:26 10° N 21:26:40 79° E 21:32:48 10° S
DELTA 2 R/B(2) 3.4 21:26:01 10° WSW 21:27:33 39° SSE 21:29:37 10° E
Sich 1 4.2 21:26:11 10° SSE 21:29:53 27° E 21:33:35 10° NNE
Cosmos 2333 Rocket 3.7 21:27:59 10° N 21:32:36 24° NE 21:37:12 10° ESE
Cosmos 1633 Rocket 4.1 21:31:19 11° SSE 21:34:52 28° E 21:38:37 10° NNE
Cosmos 1151 Rocket 3.3 21:31:33 10° NNW 21:35:51 68° W 21:40:09 10° S
MetOp-A 4.3 21:31:01 10° SSE 21:36:15 59° ENE 21:41:31 10° N
Cosmos 1437 2.8 21:33:26 10° SSW 21:36:43 81° W 21:40:01 10° N
USA 245 3.8 21:37:38 15° ESE 21:38:42 19° ENE 21:40:28 10° NNE
ATLAS 2AS CENTAUR R/B 4.0 21:33:31 10° SSE 21:39:01 23° ESE 21:44:50 10° ENE
Cosmos 2297 Rocket 3.8 21:42:05 13° ESE 21:43:56 15° E 21:46:54 10° ENE
Cosmos 1437 Rocket 4.4 21:41:24 10° NNW 21:44:48 31° W 21:48:13 10° SSW
COSMOS 2428 2.8 21:39:08 10° NNW 21:44:49 70° ENE 21:49:36 15° SSE
ARGOS 3.8 21:40:45 13° SE 21:45:07 41° ENE 21:50:09 10° N
ERS-1 Rocket 4.1 21:41:49 10° S 21:46:34 42° W 21:51:21 10° NNW
Cosmos 1455 4.3 21:45:59 10° NE 21:47:52 13° ENE 21:49:25 11° E
Envisat 3.3 21:43:07 10° S 21:48:10 69° WSW 21:53:16 10° NNW
Cosmos 2219 Rocket 3.0 21:43:39 10° N 21:48:52 38° ENE 21:53:00 15° ESE
Cosmos 1939 Rocket 3.7 21:45:37 10° S 21:49:23 46° W 21:53:09 10° NNW
Cosmos 2266 Rocket 4.5 21:43:17 10° SSW 21:49:30 64° W 21:55:40 10° N
Terra 3.5 21:47:48 12° ESE 21:50:44 19° ENE 21:54:04 10° NNE
Cosmos 1805 Rocket 3.5 21:46:33 10° S 21:50:59 74° E 21:55:25 10° NNE
ATLAS 3B R/B 4.3 21:45:42 10° NNW 21:51:24 25° NE 21:56:50 10° E
ERBS 3.6 21:49:50 15° SSE 21:51:37 22° SE 21:54:23 10° ENE
Cosmos 2315 Rocket 4.1 21:52:49 10° N 21:59:03 83° W 22:05:15 10° S
Cosmos 1726 2.2 21:57:37 10° N 22:01:23 64° E 22:03:46 21° SSE
NOSS 3-1 (C) 3.4 21:56:25 10° SSW 22:02:16 89° WNW 22:08:48 10° NE
SL-23 DEB 4.2 21:58:07 10° WNW 22:03:01 53° SW 22:05:00 23° SSE
SL-08 RB Rocket 4.1 22:00:48 20° SE 22:03:37 46° ENE 22:07:56 10° N
CZ-3A R/B 4.4 21:41:52 10° WSW 22:03:51 28° SSW 22:07:48 17° SSE
CZ-4 SHROUD 4.0 22:02:06 14° S 22:04:34 48° W 22:07:38 10° NNW
OTV 4 2.5 22:03:13 10° SSW 22:04:07 15° SSW 22:04:07 15° SSW
OAO 2 Rocket 4.0 22:00:51 10° SW 22:05:41 36° SSE 22:09:07 17° ESE
Cosmos 2237 4.3 22:00:38 10° NNW 22:06:22 75° WSW 22:10:47 17° SSE
Cosmos 1937 Rocket 3.6 22:02:33 10° S 22:07:37 52° ESE 22:12:40 10° NNE
H-2A R/B 3.7 22:03:38 10° SSW 22:07:40 31° W 22:11:42 10° NW
Cosmos 220 Rocket 4.3 22:04:31 15° S 22:07:50 47° ESE 22:12:06 10° NNE
Meteor 2-11 Rocket 4.4 22:02:48 10° N 22:08:59 85° E 22:14:03 16° S
Cosmos 1980 4.4 22:04:18 10° N 22:09:38 41° ENE 22:13:10 19° ESE
Cosmos 1707 Rocket 3.6 22:05:32 10° N 22:09:54 79° W 22:13:15 17° S
Cosmos 1666 Rocket 3.6 22:09:24 11° S 22:13:41 85° W 22:18:10 10° N
Cosmos 2298 Rocket 4.1 22:08:46 10° SSW 22:14:06 83° WNW 22:19:27 10° NNE
Cosmos 2219 4.0 22:10:35 10° SW 22:16:12 54° WNW 22:21:51 10° NNE
Tiangong 1 0.9 22:13:37 10° WSW 22:16:43 82° SSE 22:18:55 18° ENE
Cosmos 990 Rocket 4.3 22:13:36 19° SSE 22:16:54 44° ESE 22:21:47 10° NNE
CZ-4 R/B 3.8 22:13:26 10° NNE 22:18:22 68° ESE 22:22:06 17° S
Nadezhda 1 Rocket 4.3 22:13:03 10° N 22:18:56 49° ENE 22:22:31 23° SE
Meteor 1-4 Rocket 2.5 22:15:44 10° N 22:19:29 75° E 22:21:10 30° SSE
Cosmos 2237 Rocket 2.8 22:16:29 10° NNW 22:22:00 47° ENE 22:25:15 23° ESE
CZ-4C R/B 3.4 22:21:28 32° SE 22:22:39 48° ENE 22:26:00 10° N
Cosmos 2333 4.4 22:18:05 10° NNW 22:23:48 73° WSW 22:27:36 22° SSE
Cosmos 1271 Rocket 2.6 22:22:56 10° N 22:26:47 85° ENE 22:28:33 31° SSE
Cosmos 2082 4.0 22:23:04 19° S 22:26:57 48° ESE 22:32:26 10° NE
Cosmos 1470 Rocket 3.7 22:25:29 29° SSE 22:27:22 51° E 22:31:34 10° NNE
Cosmos 1933 Rocket 3.8 22:26:29 29° SSE 22:28:29 52° E 22:32:50 10° NNE
SL-08 R/B 4.4 22:23:34 15° S 22:28:52 81° E 22:35:11 10° N
CZ-4B R/B 3.9 22:25:09 10° N 22:30:24 68° WNW 22:35:31 10° SSW
Cosmos 1745 Rocket 3.9 22:27:24 18° S 22:32:06 73° E 22:38:15 10° N
Cosmos 2360 Rocket 4.1 22:27:50 10° NW 22:32:08 23° W 22:36:27 10° SSW
NOSS 0 Rocket 3.9 22:27:42 10° NNW 22:33:53 78° ENE 22:37:22 28° SSE
Cosmos 1703 3.2 22:32:28 26° S 22:34:35 87° W 22:38:31 10° N
Iridium 2 3.6 22:33:22 34° S 22:34:58 79° E 22:38:50 10° N
SL-14 R/B 4.3 22:31:35 10° SSW 22:35:20 45° WNW 22:39:13 10° N
NOAA 11 4.3 22:32:40 22° S 22:36:13 75° WSW 22:41:42 10° NNW
H-2A R/B 2.2 22:36:57 29° SE 22:39:39 65° ENE 22:45:04 10° N
Cosmos 1626 2.2 22:41:26 45° SE 22:42:12 56° E 22:45:54 10° NNE
SeaSat 1 4.5 22:46:37 11° E 22:49:34 18° NE 22:52:53 10° N
Cosmos 1386 Rocket 4.3 22:51:00 27° S 22:54:29 80° E 23:00:31 10° N
Lacrosse 4 Rocket 2.7 22:53:01 10° N 22:57:02 32° NE 22:58:32 26° E
Cosmos 1125 Rocket 3.9 22:56:55 37° SE 22:58:15 45° ESE 23:03:18 10° NNE
Cosmos 2227 Rocket 2.2 22:55:43 16° SSW 23:00:23 86° WNW 23:06:05 10° NNE
Cosmos 1862 Rocket 3.7 23:04:30 10° NNW 23:08:50 68° W 23:10:02 45° SSW
CARTOSAT-1 3.7 23:08:07 44° SSW 23:09:20 67° WSW 23:13:39 10° NNW
Cosmos 2181 Rocket 4.3 23:03:17 10° N 23:09:35 56° E 23:12:03 36° SE
Spot 2 4.3 23:04:59 10° NNE 23:10:06 80° ESE 23:11:50 41° S
COSMOS 2455 3.1 23:05:36 10° NNW 23:11:35 61° ENE 23:14:03 35° ESE
Landsat 7 4.5 23:10:19 30° SSW 23:12:15 47° W 23:16:52 10° NNW
SAR-Lupe-2 3.6 23:15:11 64° SW 23:15:25 66° WSW 23:18:59 10° NNW
SL-16 R/B 2.5 23:10:37 10° NNW 23:16:14 57° ENE 23:18:12 38° ESE
Cosmos 1933 3.4 23:12:53 10° N 23:16:55 58° E 23:17:12 57° E
Cosmos 2333 Rocket 2.6 23:11:37 10° NNW 23:17:14 55° WSW 23:19:24 35° SSW
Cosmos 44 Rocket 3.9 23:23:54 41° ESE 23:23:54 41° ESE 23:28:42 10° NE
Cosmos 1455 3.1 23:20:14 10° NNW 23:23:48 39° W 23:24:28 36° WSW
FALCON 9 R/B 3.5 23:01:54 10° W 23:23:59 59° SSW 23:27:16 34° SE
BREEZE-M DEB (TANK) 2.6 23:23:26 10° NW 23:25:19 63° NNW 23:25:19 63° NNW
Cosmos 2297 Rocket 2.3 23:23:49 25° SSW 23:27:15 75° WNW 23:32:56 10° NNE
Terra 2.5 23:26:42 36° SW 23:28:07 47° W 23:32:43 10° NNW
ERBS 4.0 23:25:03 10° WSW 23:28:17 35° NW 23:31:32 10° NNE
ATLAS 2AS CENTAUR R/B 3.1 23:21:37 10° SW 23:29:08 79° NW 23:37:15 10° NNE
Cosmos 2219 Rocket 3.5 23:27:52 10° NW 23:32:40 30° WSW 23:34:43 24° SW
H-2A R/B 4.4 23:30:11 10° NE 23:32:31 19° ENE 23:32:31 19° ENE
Spot 4 4.3 23:34:28 41° SW 23:35:41 52° W 23:40:27 10° NNW
Cosmos 1869 Rocket 3.4 23:36:29 70° SE 23:36:49 74° E 23:41:17 10° NNE
IGS 5A 4.5 23:36:25 34° WSW 23:37:08 36° W 23:41:01 10° NNW
Aureole 2 Rocket 4.2 23:35:50 10° N 23:38:01 24° NE 23:38:01 24° NE
ATLAS 3B R/B 2.6 23:36:01 10° NW 23:43:03 86° WSW 23:45:16 46° SSE
Cosmos 1900 4.2 23:40:51 10° NW 23:45:48 70° WSW 23:46:21 63° SSW
COS B Rocket 3.3 23:45:43 10° N 23:49:36 81° W 23:49:36 81° W
OAO 2 Rocket 4.5 23:45:04 10° WSW 23:48:06 30° SW 23:48:06 30° SW
Cosmos 1603 4.5 23:44:48 10° N 23:50:13 42° ENE 23:52:01 33° ESE
ALOS 2 3.6 23:52:44 34° E 23:53:01 35° ENE 23:57:01 10° N
Tiangong 1 3.7 23:50:20 10° W 23:51:01 15° WNW 23:51:01 15° WNW
